Location: Spruce Knob
(38.6995°N, 79.5330°W)
Time: 21:02:35
(UTC-04:00)

A-11 Canister half - Pass Details

Date: 06 February 2022
Orbit: 1513 x 1686 km, 47.2° (Epoch: 26 May)

Event Time Altitude Azimuth Distance (km) Brightness Sun altitude
Rises 21:54:56 0° 293° (WNW) 4,679 12.2 -48.4°
Reaches altitude 10° 21:58:55 10° 278° (W) 3,679 11.5 -49.1°
Enters shadow 22:04:20 21° 242° (WSW) 2,909 10.6 -50.1°
Maximum altitude 22:05:15 21° 234° (SW) 2,889 - -50.2°
Drops below altitude 10° 22:11:36 10° 189° (S) 3,665 - -51.3°
Sets 22:15:36 0° 174° (S) 4,656 - -52.0°
